TIANMU-1 13

Last updated on Sun Apr 12 2026 00:02:27 GMT+0000 (Coordinated Universal Time)

1 58647U 23205C 26101.52285302 .00004862 00000+0 18995-3 0 9993 2 58647 97.3525 124.1684 0007182 189.9919 170.1178 15.26319935127338
UTC large
Height (km)
Speed (km/s)
/
Latitude / Longitude
Inclination (degrees)
Orbital Period (minutes)
Azimuth
Elevation
Range (km)
Doppler Factor

Next 0 passes for location: London (51.5072 / 0.1276)

Sorry there are no passes over London.
TIANMU-1 13